Simultaneous Nadir Overpasses (SNOs) Predictions

Prediction of SNOs between METOP-B and TERRA Satellite Orbit:

Table of predicted SNOs for the next 14.0 days since TLE Epoch: 4/25/2020
Index Date (METOP-B) Time (METOP-B) Lat,Lon (METOP-B) SZA (METOP-B ) Date (TERRA) Time (TERRA) Lat,Lon (TERRA) SZA (TERRA ) Distance(km) Time Diff (sec)
1 04/26/2020 13:09:09 81.20, 24.66 69.80 04/26/2020 13:10:23 81.00, 25.03 69.73 22.66 74
2 04/26/2020 13:59:35 -81.31,-162.39 109.52 04/26/2020 13:59:36 -81.32,-162.29 109.50 1.78 1
3 04/26/2020 14:50:15 81.32, 5.38 70.53 04/26/2020 14:49:02 81.32, 5.48 70.51 1.58 73
4 04/29/2020 08:43:17 81.32, 96.73 69.64 04/29/2020 08:44:22 81.32, 96.55 69.65 2.97 65
5 04/29/2020 09:33:57 -81.32, -95.72 110.35 04/29/2020 09:33:49 -81.31, -95.90 110.38 2.99 8
6 05/02/2020 04:17:40 81.31, 162.95 68.78 05/02/2020 04:18:35 81.31, 162.89 68.80 1.11 55
7 05/02/2020 05:08:20 -81.32, -29.46 111.20 05/02/2020 05:08:02 -81.31, -29.54 111.23 1.64 18
8 05/04/2020 23:52:02 81.31,-130.84 67.95 05/04/2020 23:52:47 81.30,-130.81 67.97 0.92 45
9 05/05/2020 00:42:41 -81.32, 37.17 111.98 05/05/2020 00:42:13 -81.32, 37.16 111.99 0.34 28
10 05/07/2020 19:26:24 81.31, -64.26 67.20 05/07/2020 19:26:59 81.31, -64.16 67.23 1.70 35




NCC Satellite Simultaneous Nadir Overpasses (SNOs) Prediction Service
